Canon City Fremont County, CO

2:59 PM MDT on September 20, 2017 (GMT -0600)
Canon City Fremont County

Weather History for K1V6 - January, 2014

Change the Weather History Date:

Wednesday, January 29, 2014

  Actual Average (KFCS) Record (KFCS)
Temperature  
Mean Temperature 42 °F -  
Max Temperature 59 °F 41 °F 63 °F (2011)
Min Temperature 24 °F 20 °F 8 °F (1991)
Degree Days  
Heating Degree Days 24    
Moisture  
Dew Point 17 °F    
Average Humidity 36    
Maximum Humidity 54    
Minimum Humidity 19    
Precipitation  
Precipitation 0.00 in - - ()
Sea Level Pressure  
Sea Level Pressure 29.79 in    
Wind  
Wind Speed 10 mph (West)    
Max Wind Speed 25 mph    
Max Gust Speed 33 mph    
Visibility 10 miles    
Events      
Averages and records for this station are not official NWS values.
T = Trace of Precipitation, MM = Missing Value Source: NWS Daily Summary

Daily Weather History Graph

Daily Weather History Graph

Search for Another Location

Airport or City:

Trip Planner

Search our weather history database for the weather conditions in past years. The results will help you decide how hot, cold, wet, or windy it might be!

Date:

Astronomy

Jan. 29, 2014 Rise Set
Actual Time 7:08 AM MST 5:19 PM MST
Civil Twilight 6:40 AM MST 5:47 PM MST
Nautical Twilight 6:08 AM MST 6:19 PM MST
Astronomical Twilight 5:37 AM MST 6:50 PM MST
Moon 5:47 AM MST (1/29) 4:22 PM MST (1/29)
Length of Visible Light 11h 07m
Length of Day
10h 11m
Waning Crescent, 2% of the Moon is Illuminated
Jan 29
Waning Crescent
Jan 30
New
Feb 6
First Quarter
Feb 14
Full
Feb 22
Last Quarter

Hourly Weather History & Observations

Time (MST) Temp. Windchill Dew Point Humidity Pressure Visibility Wind Dir Wind Speed Gust Speed Precip Events Conditions
12:15 AM 24.8 °F - 10.4 °F 54% 30.02 in 10.0 mi Calm Calm - N/A   Clear
12:35 AM 28.4 °F - 10.4 °F 47% 30.02 in 10.0 mi Calm Calm - N/A   Clear
12:55 AM 32.0 °F - 6.8 °F 35% 30.02 in 10.0 mi Calm Calm - N/A   Clear
1:15 AM 32.0 °F 25.6 °F 10.4 °F 41% 30.02 in 10.0 mi WSW 6.9 mph - N/A   Clear
1:35 AM 30.2 °F 22.6 °F 8.6 °F 40% 30.01 in 10.0 mi WSW 8.1 mph - N/A   Clear
1:55 AM 32.0 °F 23.0 °F 10.4 °F 41% 30.00 in 10.0 mi WSW 11.5 mph - N/A   Clear
2:15 AM 32.0 °F 28.7 °F 10.4 °F 41% 30.00 in 10.0 mi West 3.5 mph - N/A   Clear
2:35 AM 32.0 °F 26.4 °F 8.6 °F 38% 29.99 in 10.0 mi West 5.8 mph - N/A   Clear
2:55 AM 33.8 °F 26.4 °F 8.6 °F 35% 29.98 in 10.0 mi West 9.2 mph - N/A   Clear
3:15 AM 32.0 °F 24.8 °F 10.4 °F 41% 29.98 in 10.0 mi WNW 8.1 mph - N/A   Clear
3:35 AM 32.0 °F 22.5 °F 10.4 °F 41% 29.98 in 10.0 mi WNW 12.7 mph - N/A   Clear
3:55 AM 32.0 °F 20.8 °F 10.4 °F 41% 29.97 in 10.0 mi WNW 17.3 mph - N/A   Clear
4:15 AM 33.8 °F 23.5 °F 10.4 °F 38% 29.97 in 10.0 mi WNW 16.1 mph - N/A   Clear
4:35 AM 32.0 °F 22.1 °F 12.2 °F 44% 29.96 in 10.0 mi WNW 13.8 mph - N/A   Clear
4:55 AM 32.0 °F 22.1 °F 10.4 °F 41% 29.96 in 10.0 mi West 13.8 mph - N/A   Clear
5:15 AM 33.8 °F 23.5 °F 10.4 °F 38% 29.96 in 10.0 mi West 16.1 mph - N/A   Clear
5:35 AM 33.8 °F 23.9 °F 8.6 °F 35% 29.96 in 10.0 mi WNW 15.0 mph - N/A   Clear
5:55 AM 32.0 °F 21.6 °F 10.4 °F 41% 29.96 in 10.0 mi WNW 15.0 mph - N/A   Clear
6:15 AM 32.0 °F 20.5 °F 10.4 °F 41% 29.96 in 10.0 mi WNW 18.4 mph - N/A   Clear
6:25 AM 32.0 °F 21.2 °F 10.4 °F 41% 29.95 in 10.0 mi WNW 16.1 mph - N/A   Clear
2:55 PM 59.0 °F - 15.8 °F 19% 29.76 in 10.0 mi WSW 17.3 mph - N/A   Clear
3:15 PM 59.0 °F - 15.8 °F 19% 29.75 in 10.0 mi SW 11.5 mph - N/A   Clear
3:35 PM 59.0 °F - 15.8 °F 19% 29.74 in 10.0 mi SW 6.9 mph - N/A   Clear
3:55 PM 59.0 °F - 17.6 °F 20% 29.73 in 10.0 mi SW 8.1 mph - N/A   Clear
4:15 PM 59.0 °F - 17.6 °F 20% 29.71 in 10.0 mi WSW 11.5 mph 16.1 mph N/A   Clear
4:35 PM 55.4 °F - 19.4 °F 25% 29.71 in 10.0 mi WSW 11.5 mph 17.3 mph N/A   Clear
4:55 PM 53.6 °F - 19.4 °F 26% 29.70 in 10.0 mi WSW 17.3 mph 23.0 mph N/A   Clear
5:15 PM 53.6 °F - 19.4 °F 26% 29.69 in 10.0 mi WSW 17.3 mph - N/A   Clear
5:35 PM 51.8 °F - 19.4 °F 28% 29.67 in 10.0 mi West 21.9 mph 26.5 mph N/A   Clear
5:55 PM 51.8 °F - 19.4 °F 28% 29.65 in 10.0 mi West 23.0 mph - N/A   Clear
6:15 PM 51.8 °F - 19.4 °F 28% 29.65 in 10.0 mi West 19.6 mph 25.3 mph N/A   Clear
6:35 PM 51.8 °F - 21.2 °F 30% 29.64 in 10.0 mi West 23.0 mph - N/A   Clear
6:55 PM 48.2 °F - 21.2 °F 34% 29.66 in 10.0 mi West 18.4 mph - N/A   Clear
7:15 PM 46.4 °F 40.4 °F 23.0 °F 40% 29.66 in 10.0 mi West 13.8 mph - N/A   Clear
7:35 PM 46.4 °F 41.5 °F 23.0 °F 40% 29.65 in 10.0 mi WSW 10.4 mph - N/A   Clear
7:55 PM 46.4 °F 41.5 °F 23.0 °F 40% 29.64 in 10.0 mi WSW 10.4 mph - N/A   Clear
8:15 PM 50.0 °F - 26.6 °F 40% 29.62 in 10.0 mi West 17.3 mph 23.0 mph N/A   Clear
8:35 PM 51.8 °F - 26.6 °F 38% 29.61 in 10.0 mi West 25.3 mph 33.4 mph N/A   Clear
8:55 PM 51.8 °F - 26.6 °F 38% 29.61 in 10.0 mi West 20.7 mph 29.9 mph N/A   Clear
9:15 PM 51.8 °F - 26.6 °F 38% 29.61 in 10.0 mi West 23.0 mph 29.9 mph N/A   Clear
9:35 PM 51.8 °F - 26.6 °F 38% 29.60 in 10.0 mi West 11.5 mph - N/A   Clear
9:55 PM 48.2 °F - 26.6 °F 43% 29.60 in 10.0 mi West 5.8 mph - N/A   Clear
10:15 PM 48.2 °F - 26.6 °F 43% 29.61 in 10.0 mi West 6.9 mph - N/A   Clear
10:35 PM 51.8 °F - 26.6 °F 38% 29.62 in 10.0 mi WSW 4.6 mph - N/A   Clear
10:55 PM 53.6 °F - 26.6 °F 35% 29.62 in 10.0 mi Calm Calm - N/A   Clear
11:15 PM 51.8 °F - 26.6 °F 38% 29.62 in 10.0 mi WNW 5.8 mph - N/A   Clear
11:35 PM 51.8 °F - 28.4 °F 41% 29.61 in 10.0 mi NW 12.7 mph - N/A   Clear
11:55 PM 51.8 °F - 28.4 °F 41% 29.60 in 10.0 mi NW 17.3 mph 27.6 mph N/A   Clear